• In Austria
  • List of Countries
  • For 7 days
  • Water Temperature
  • Satellite Maps
  • Weather Map
  • News
  • Weather Widgets
  • user-avatar
    Login

    Hourly Weather Fier

    Today, 18 December, Monday

    Time Temperature Precipitation Wind Pressure Humidity
    00:00 +6°C° 0.3 mm 4 mps 760 mmHg 88%
    01:00 +6°C° 0 mm 5 mps 760 mmHg 86%
    02:00 +6°C° 0.6 mm 5 mps 760 mmHg 87%
    03:00 +6°C° 0.6 mm 5 mps 761 mmHg 88%
    04:00 +6°C° 0.6 mm 5 mps 761 mmHg 89%
    05:00 +6°C° 0.3 mm 5 mps 761 mmHg 90%
    06:00 +6°C° 0.3 mm 4 mps 761 mmHg 91%
    07:00 +7°C° 0 mm 3 mps 761 mmHg 93%
    08:00 +7°C° 0.1 mm 3 mps 761 mmHg 88%
    09:00 +8°C° 0.1 mm 3 mps 761 mmHg 83%
    10:00 +8°C° 0.1 mm 3 mps 762 mmHg 79%
    11:00 +9°C° 0.1 mm 3 mps 761 mmHg 75%
    12:00 +9°C° 0.1 mm 3 mps 761 mmHg 71%
    13:00 +9°C° 0.1 mm 3 mps 761 mmHg 68%
    14:00 +8°C° 0.3 mm 3 mps 761 mmHg 72%
    15:00 +7°C° 0.3 mm 4 mps 761 mmHg 76%
    16:00 +6°C° 0.3 mm 4 mps 761 mmHg 81%
    17:00 +5°C° 0.4 mm 4 mps 762 mmHg 82%
    18:00 +5°C° 0.4 mm 4 mps 762 mmHg 84%
    19:00 +4°C° 0.4 mm 4 mps 763 mmHg 86%
    20:00 +4°C° 0.2 mm 3 mps 763 mmHg 85%
    21:00 +4°C° 0.2 mm 3 mps 763 mmHg 85%
    22:00 +3°C° 0.2 mm 3 mps 764 mmHg 85%
    23:00 +4°C° 0.1 mm 2 mps 764 mmHg 84%

    Tomorrow, 19 December, Tuesday

    Time Temperature Precipitation Wind Pressure Humidity
    00:00 +4°C° 0.1 mm 2 mps 765 mmHg 84%
    01:00 +4°C° 0.1 mm 2 mps 765 mmHg 83%
    02:00 +4°C° 0 mm 2 mps 765 mmHg 83%
    03:00 +3°C° 0 mm 2 mps 766 mmHg 82%
    04:00 +2°C° 0 mm 3 mps 766 mmHg 82%
    05:00 +2°C° 0 mm 3 mps 767 mmHg 81%
    06:00 +2°C° 0 mm 3 mps 767 mmHg 80%
    07:00 +2°C° 0 mm 3 mps 768 mmHg 79%
    08:00 +3°C° 0 mm 3 mps 768 mmHg 74%
    09:00 +4°C° 0 mm 3 mps 769 mmHg 68%
    10:00 +5°C° 0 mm 3 mps 769 mmHg 63%
    11:00 +5°C° 0 mm 3 mps 769 mmHg 60%
    12:00 +7°C° 0 mm 3 mps 769 mmHg 57%
    13:00 +7°C° 0 mm 3 mps 769 mmHg 54%
    14:00 +7°C° 0 mm 3 mps 769 mmHg 59%
    15:00 +5°C° 0 mm 3 mps 769 mmHg 63%
    16:00 +4°C° 0 mm 4 mps 769 mmHg 67%
    17:00 +4°C° 0 mm 4 mps 769 mmHg 69%
    18:00 +3°C° 0 mm 4 mps 770 mmHg 70%
    19:00 +1°C° 0 mm 4 mps 770 mmHg 72%
    20:00 +2°C° 0 mm 3 mps 770 mmHg 72%
    21:00 +2°C° 0 mm 3 mps 770 mmHg 72%
    22:00 +1°C° 0 mm 3 mps 770 mmHg 72%
    23:00 +1°C° 0 mm 3 mps 770 mmHg 72%

    Day after tomorrow, 20 December, Wednesday

    Time Temperature Precipitation Wind Pressure Humidity
    00:00 +1°C° 0 mm 3 mps 770 mmHg 71%
    01:00 +1°C° 0 mm 3 mps 770 mmHg 71%
    02:00 +1°C° 0 mm 3 mps 770 mmHg 71%
    03:00 +1°C° 0 mm 3 mps 770 mmHg 70%
    04:00 +1°C° 0 mm 3 mps 770 mmHg 70%
    05:00 +1°C° 0 mm 3 mps 770 mmHg 69%
    06:00 +1°C° 0 mm 3 mps 770 mmHg 69%
    07:00 0°C° 0 mm 3 mps 770 mmHg 68%
    08:00 +2°C° 0 mm 3 mps 770 mmHg 62%
    09:00 +3°C° 0 mm 3 mps 770 mmHg 57%
    10:00 +4°C° 0 mm 3 mps 770 mmHg 51%
    11:00 +5°C° 0 mm 3 mps 770 mmHg 49%
    12:00 +7°C° 0 mm 3 mps 769 mmHg 46%
    13:00 +8°C° 0 mm 2 mps 769 mmHg 43%
    14:00 +7°C° 0 mm 3 mps 769 mmHg 49%
    15:00 +5°C° 0 mm 3 mps 769 mmHg 54%
    16:00 +4°C° 0 mm 3 mps 769 mmHg 59%
    17:00 +3°C° 0 mm 3 mps 769 mmHg 60%
    18:00 +2°C° 0 mm 3 mps 769 mmHg 62%
    19:00 +2°C° 0 mm 3 mps 770 mmHg 64%
    20:00 +1°C° 0 mm 3 mps 770 mmHg 64%
    21:00 +1°C° 0 mm 3 mps 770 mmHg 64%
    22:00 +1°C° 0 mm 3 mps 770 mmHg 64%
    23:00 +1°C° 0 mm 3 mps 770 mmHg 64%

    21 December, Thursday

    Time Temperature Precipitation Wind Pressure Humidity
    00:00 +1°C° 0 mm 3 mps 770 mmHg 63%
    01:00 +1°C° 0 mm 3 mps 770 mmHg 63%
    02:00 +1°C° 0 mm 3 mps 770 mmHg 63%
    03:00 +1°C° 0 mm 3 mps 769 mmHg 63%
    04:00 +1°C° 0 mm 3 mps 769 mmHg 63%
    05:00 +1°C° 0 mm 3 mps 770 mmHg 63%
    06:00 +1°C° 0 mm 3 mps 770 mmHg 63%
    07:00 +1°C° 0 mm 3 mps 770 mmHg 63%
    08:00 +2°C° 0 mm 3 mps 770 mmHg 59%
    09:00 +3°C° 0 mm 3 mps 770 mmHg 56%
    10:00 +5°C° 0 mm 3 mps 770 mmHg 52%
    11:00 +7°C° 0 mm 3 mps 770 mmHg 50%
    12:00 +7°C° 0 mm 3 mps 769 mmHg 48%
    13:00 +7°C° 0 mm 4 mps 769 mmHg 47%
    14:00 +6°C° 0 mm 4 mps 769 mmHg 52%
    15:00 +5°C° 0 mm 4 mps 769 mmHg 58%
    16:00 +4°C° 0 mm 4 mps 769 mmHg 64%
    17:00 +3°C° 0 mm 4 mps 769 mmHg 66%
    18:00 +3°C° 0 mm 4 mps 770 mmHg 69%
    19:00 +1°C° 0 mm 4 mps 770 mmHg 71%
    20:00 +1°C° 0 mm 4 mps 770 mmHg 71%
    21:00 0°C° 0 mm 4 mps 771 mmHg 72%
    22:00 0°C° 0 mm 4 mps 771 mmHg 72%
    23:00 +1°C° 0 mm 3 mps 771 mmHg 72%

    22 December, Friday

    Time Temperature Precipitation Wind Pressure Humidity
    00:00 +1°C° 0 mm 3 mps 770 mmHg 71%
    01:00 +1°C° 0 mm 3 mps 770 mmHg 70%
    02:00 0°C° 0 mm 4 mps 770 mmHg 68%
    03:00 0°C° 0 mm 4 mps 769 mmHg 67%
    04:00 0°C° 0 mm 4 mps 769 mmHg 65%
    05:00 0°C° 0 mm 4 mps 769 mmHg 63%
    06:00 0°C° 0 mm 4 mps 769 mmHg 60%
    07:00 0°C° 0 mm 4 mps 769 mmHg 58%
    08:00 +3°C° 0 mm 4 mps 769 mmHg 52%
    09:00 +5°C° 0 mm 4 mps 769 mmHg 46%
    10:00 +7°C° 0 mm 5 mps 769 mmHg 40%
    11:00 +8°C° 0 mm 5 mps 768 mmHg 39%
    12:00 +9°C° 0 mm 5 mps 767 mmHg 37%
    13:00 +10°C° 0 mm 5 mps 766 mmHg 36%
    14:00 +9°C° 0 mm 5 mps 766 mmHg 42%
    15:00 +7°C° 0 mm 5 mps 766 mmHg 49%
    16:00 +6°C° 0 mm 5 mps 766 mmHg 55%
    17:00 +5°C° 0 mm 5 mps 766 mmHg 56%
    18:00 +5°C° 0 mm 5 mps 766 mmHg 58%
    19:00 +3°C° 0 mm 5 mps 767 mmHg 59%
    20:00 +3°C° 0 mm 5 mps 767 mmHg 60%
    21:00 +2°C° 0 mm 5 mps 766 mmHg 61%
    22:00 +2°C° 0 mm 5 mps 766 mmHg 62%
    23:00 +2°C° 0 mm 5 mps 766 mmHg 62%

    23 December, Saturday

    Time Temperature Precipitation Wind Pressure Humidity
    00:00 +2°C° 0 mm 5 mps 766 mmHg 62%
    01:00 +2°C° 0 mm 5 mps 765 mmHg 62%
    02:00 +2°C° 0 mm 5 mps 765 mmHg 62%
    03:00 +2°C° 0 mm 6 mps 765 mmHg 62%
    04:00 +2°C° 0 mm 6 mps 764 mmHg 62%
    05:00 +2°C° 0 mm 6 mps 764 mmHg 62%
    06:00 +2°C° 0 mm 5 mps 765 mmHg 62%
    07:00 +2°C° 0 mm 5 mps 765 mmHg 62%
    08:00 +3°C° 0 mm 5 mps 765 mmHg 58%
    09:00 +5°C° 0 mm 6 mps 765 mmHg 55%
    10:00 +7°C° 0 mm 6 mps 765 mmHg 51%
    11:00 +8°C° 0 mm 6 mps 764 mmHg 50%
    12:00 +8°C° 0 mm 6 mps 764 mmHg 50%
    13:00 +8°C° 0 mm 6 mps 763 mmHg 49%
    14:00 +7°C° 0 mm 6 mps 764 mmHg 55%
    15:00 +5°C° 0 mm 6 mps 764 mmHg 60%
    16:00 +4°C° 0 mm 6 mps 764 mmHg 65%
    17:00 +3°C° 0 mm 6 mps 764 mmHg 68%
    18:00 +2°C° 0 mm 6 mps 765 mmHg 70%
    19:00 +1°C° 0 mm 5 mps 765 mmHg 72%
    20:00 +1°C° 0 mm 5 mps 766 mmHg 71%
    21:00 +1°C° 0 mm 5 mps 766 mmHg 70%
    22:00 0°C° 0 mm 5 mps 766 mmHg 69%
    23:00 -1°C° 0 mm 6 mps 766 mmHg 68%
    Show more